DW8689 Weather Reports


time (UTC)temp
C
wind
direction
speed
KPH
gust
KPH
rain 1hr
cm
rain 24hr
cm
rain mn
cm
humidity
%
barometer
mb
20260506094509 10 44 3.2 12.9 0.00 0.00 0.00 60 1010.2
20260506094010 9 44 3.2 9.7 0.00 0.00 0.00 60 1010.2
20260506093509 9 47 3.2 9.7 0.00 0.00 0.00 59 1010.2
20260506093010 9 48 3.2 9.7 0.00 0.00 0.00 60 1010.3
20260506092510 9 46 3.2 9.7 0.00 0.00 0.00 60 1010.4
20260506091510 8 41 3.2 12.9 0.00 0.00 0.00 60 1010.3
20260506090509 8 46 3.2 8.0 0.00 0.00 0.00 63 1010.3
20260506090010 8 46 1.6 6.4 0.00 0.00 0.00 64 1010.4
20260506085010 8 39 1.6 6.4 0.00 0.03 0.00 72 1010.6
20260506084510 7 39 1.6 6.4 0.00 0.03 0.00 72 1010.6
20260506083510 7 39 1.6 6.4 0.00 0.03 0.00 72 1010.8
20260506083009 7 39 1.6 6.4 0.00 0.03 0.00 72 1010.9
20260506082509 7 39 1.6 6.4 0.00 0.03 0.00 72 1010.9
20260506082009 7 39 1.6 6.4 0.00 0.03 0.00 72 1010.9
20260506081510 7 38 1.6 6.4 0.00 0.03 0.00 75 1011.0
20260506081010 6 37 1.6 6.4 0.00 0.03 0.00 75 1011.0
20260506080510 6 46 1.6 6.4 0.00 0.03 0.00 76 1011.0
20260506073509 5 28 1.6 4.8 0.00 0.03 0.00 85 1011.1
20260506073009 4 31 1.6 4.8 0.00 0.03 0.00 86 1011.1
20260506072510 4 41 0.0 4.8 0.00 0.03 0.00 87 1011.0
20260506072010 3 54 0.0 3.2 0.00 0.03 0.00 88 1011.0
20260506071510 3 0 0.0 0.0 0.00 0.03 0.00 88 1011.0
20260506062010 1 0 0.0 0.0 0.00 0.03 0.00 88 1010.8
20260506061510 0 0 0.0 0.0 0.00 0.03 0.00 88 1010.8
20260506061010 0 0 0.0 0.0 0.00 0.03 0.00 88 1010.9
20260506060510 0 0 0.0 0.0 0.00 0.03 0.00 88 1010.8
20260506051010 0 0 0.0 0.0 0.00 0.10 0.00 87 1011.0
20260506050509 0 0 0.0 0.0 0.00 0.10 0.00 86 1011.0
20260506044509 0 54 0.0 1.6 0.00 0.13 0.00 86 1011.0
20260506044010 0 53 0.0 3.2 0.00 0.13 0.00 86 1011.0
20260506043009 0 49 0.0 3.2 0.00 0.13 0.00 85 1011.1
20260506042510 0 49 0.0 1.6 0.00 0.13 0.00 85 1011.0
20260506041510 0 50 0.0 1.6 0.00 0.13 0.00 85 1011.2
20260506041009 0 49 0.0 1.6 0.00 0.13 0.00 85 1011.2
20260506040509 0 49 0.0 1.6 0.00 0.13 0.00 85 1011.2
20260506040010 0 50 0.0 1.6 0.00 0.13 0.00 85 1011.3
20260506035509 0 50 0.0 1.6 0.00 0.13 0.00 85 1011.3
20260506035010 0 50 0.0 1.6 0.00 0.13 0.00 84 1011.3
20260506034510 0 50 0.0 1.6 0.00 0.13 0.00 84 1011.3
20260506034010 0 0 0.0 0.0 0.00 0.13 0.00 84 1011.4
20260506033509 0 0 0.0 0.0 0.00 0.13 0.00 83 1011.4
20260506032509 0 50 0.0 1.6 0.00 0.13 0.00 83 1011.4
20260506031510 0 0 0.0 0.0 0.00 0.13 0.00 82 1011.4
20260506031010 0 0 0.0 0.0 0.00 0.13 0.00 82 1011.4
20260506030510 1 0 0.0 0.0 0.00 0.13 0.00 82 1011.5
20260506010009 3 50 0.0 4.8 0.00 0.13 0.00 77 1012.0
20260506005509 3 50 1.6 4.8 0.00 0.13 0.00 77 1012.1
20260506005010 3 48 0.0 1.6 0.00 0.13 0.00 77 1012.1
20260506004509 4 49 0.0 1.6 0.00 0.13 0.00 77 1012.2
20260506004010 4 49 0.0 3.2 0.00 0.13 0.00 77 1012.2
20260506003509 4 48 0.0 3.2 0.00 0.13 0.00 77 1012.1
20260506003010 4 48 1.6 4.8 0.00 0.13 0.00 77 1012.1
20260506002010 4 51 1.6 4.8 0.00 0.13 0.00 77 1012.2
20260506001510 4 56 1.6 6.4 0.00 0.13 0.00 78 1012.2
20260506000509 4 48 0.0 3.2 0.00 0.13 0.00 78 1012.2
20260506000010 4 48 0.0 3.2 0.00 0.13 0.00 79 1012.3
20260505235509 4 48 0.0 3.2 0.00 0.13 0.00 79 1012.2
20260505235009 3 47 0.0 3.2 0.00 0.13 0.00 79 1012.2
20260505234510 3 48 0.0 3.2 0.00 0.13 0.00 80 1012.2
20260505233508 3 0 0.0 0.0 0.00 0.13 0.00 80 1012.3
20260505233009 3 0 0.0 0.0 0.00 0.13 0.00 81 1012.2
20260505232509 3 0 0.0 0.0 0.00 0.13 0.00 81 1012.2
20260505231010 3 48 0.0 3.2 0.00 0.13 0.00 81 1012.2
20260505230013 3 0 0.0 0.0 0.00 0.13 0.00 81 1012.3
20260505225010 3 48 0.0 1.6 0.00 0.13 0.13 81 1012.4
20260505224510 4 48 0.0 3.2 0.00 0.13 0.13 81 1012.4
20260505224010 4 48 0.0 3.2 0.00 0.13 0.13 81 1012.4
20260505223510 4 47 0.0 1.6 0.00 0.13 0.13 81 1012.4
20260505223010 4 48 0.0 3.2 0.00 0.13 0.13 81 1012.3
20260505222509 4 47 0.0 3.2 0.00 0.13 0.13 81 1012.3
20260505222010 5 47 0.0 3.2 0.00 0.13 0.13 81 1012.3
20260505220509 5 46 0.0 4.8 0.00 0.13 0.13 81 1012.3
20260505215509 5 39 0.0 4.8 0.00 0.13 0.13 81 1012.3
20260505215010 5 41 1.6 4.8 0.00 0.13 0.13 81 1012.3
20260505214510 5 42 1.6 3.2 0.00 0.13 0.13 81 1012.3
20260505214010 5 40 0.0 3.2 0.00 0.13 0.13 81 1012.3
20260505212509 5 38 0.0 3.2 0.00 0.13 0.13 80 1012.2
20260505212010 5 38 0.0 3.2 0.00 0.13 0.13 80 1012.2
20260505211509 6 38 0.0 3.2 0.00 0.13 0.13 79 1012.2
20260505211010 6 38 0.0 1.6 0.00 0.13 0.13 79 1012.1
20260505210510 6 38 0.0 1.6 0.00 0.13 0.13 78 1012.1
20260505210009 6 38 0.0 1.6 0.00 0.13 0.13 78 1012.1
20260505205509 6 38 0.0 1.6 0.00 0.13 0.13 78 1012.1
20260505204010 6 31 0.0 1.6 0.00 0.13 0.13 76 1012.1
20260505203509 6 30 0.0 1.6 0.00 0.13 0.13 76 1012.0
20260505203010 7 0 0.0 0.0 0.00 0.13 0.13 75 1012.0
20260505202509 7 0 0.0 0.0 0.00 0.13 0.13 75 1012.1
20260505202010 7 30 0.0 1.6 0.00 0.13 0.13 74 1012.1
20260505201510 7 42 0.0 4.8 0.00 0.13 0.13 74 1012.1
20260505201010 7 47 0.0 4.8 0.00 0.13 0.13 73 1012.1
20260505200509 7 47 1.6 4.8 0.00 0.13 0.13 73 1012.1
20260505200010 7 42 1.6 3.2 0.00 0.13 0.13 73 1012.2
20260505195510 8 38 1.6 4.8 0.00 0.13 0.13 72 1012.2
20260505194010 8 28 1.6 6.4 0.00 0.13 0.13 71 1012.2
20260505193510 8 28 1.6 6.4 0.00 0.13 0.13 71 1012.3
20260505193010 9 35 1.6 6.4 0.00 0.13 0.13 70 1012.3
20260505192509 9 30 0.0 6.4 0.00 0.13 0.13 70 1012.2
20260505191509 9 30 0.0 6.4 0.00 0.13 0.13 69 1012.1
20260505191010 9 30 0.0 6.4 0.00 0.13 0.13 69 1012.1
20260505190510 9 30 0.0 6.4 0.00 0.13 0.13 69 1012.1
20260505190010 9 30 0.0 6.4 0.00 0.13 0.13 69 1012.1
20260505185508 9 30 0.0 6.4 0.00 0.13 0.13 69 1012.1
20260505185010 9 30 0.0 6.4 0.00 0.13 0.13 69 1012.0
20260505184508 9 30 0.0 6.4 0.00 0.13 0.13 69 1012.1
20260505184009 9 30 0.0 6.4 0.00 0.13 0.13 69 1012.1
20260505183009 9 30 0.0 6.4 0.00 0.13 0.13 69 1012.0
20260505182509 9 30 0.0 6.4 0.00 0.13 0.13 69 1012.1
20260505182009 8 30 0.0 6.4 0.00 0.13 0.13 69 1012.1
20260505181509 8 26 1.6 6.4 0.00 0.13 0.13 69 1012.1
20260505181010 9 27 3.2 4.8 0.00 0.13 0.13 68 1012.1
20260505180510 10 27 3.2 4.8 0.00 0.13 0.13 62 1012.0
20260505180010 10 27 3.2 4.8 0.00 0.13 0.13 62 1012.0
20260505175509 10 27 3.2 4.8 0.00 0.13 0.13 62 1012.0
20260505175009 10 27 3.2 4.8 0.00 0.13 0.13 62 1012.0
20260505174509 10 27 3.2 4.8 0.00 0.13 0.13 62 1012.1
20260505174010 10 27 3.2 4.8 0.00 0.13 0.13 62 1012.1
20260505173510 10 27 3.2 4.8 0.00 0.13 0.13 62 1012.1
20260505173010 10 27 3.2 4.8 0.00 0.13 0.13 62 1012.1
20260505172510 10 27 3.2 4.8 0.00 0.13 0.13 62 1012.1
20260505172010 10 27 3.2 4.8 0.00 0.13 0.13 62 1012.1
20260505171509 10 27 3.2 4.8 0.00 0.13 0.13 62 1012.1
20260505171010 11 27 3.2 4.8 0.00 0.13 0.13 62 1012.1
20260505165511 12 27 3.2 4.8 0.00 0.13 0.13 53 1012.1
20260505165009 13 27 3.2 4.8 0.00 0.13 0.13 53 1012.1
20260505164510 13 27 3.2 4.8 0.00 0.13 0.13 53 1012.0
20260505163509 13 27 3.2 4.8 0.00 0.13 0.13 53 1012.0
20260505163010 13 27 3.2 4.8 0.00 0.13 0.13 53 1012.1
20260505162509 13 27 3.2 4.8 0.00 0.13 0.13 53 1012.0
20260505162010 13 27 3.2 4.8 0.00 0.13 0.13 53 1012.0
20260505161510 13 27 3.2 4.8 0.00 0.13 0.13 53 1012.1
20260505161009 13 27 3.2 4.8 0.00 0.13 0.13 53 1012.1
20260505160509 13 27 3.2 4.8 0.00 0.13 0.13 53 1012.1
20260505153009 12 27 3.2 4.8 0.00 0.13 0.13 58 1012.1
20260505152509 12 27 3.2 4.8 0.00 0.13 0.13 58 1012.2
20260505152009 12 27 3.2 4.8 0.00 0.13 0.13 58 1012.2
20260505151510 12 27 3.2 4.8 0.00 0.13 0.13 58 1012.2
20260505150509 13 24 3.2 4.8 0.00 0.13 0.13 58 1012.2
20260505124509 11 37 4.8 11.3 0.00 0.13 0.13 70 1012.3
20260505124009 11 30 4.8 9.7 0.00 0.13 0.13 71 1012.3
20260505123510 11 31 4.8 9.7 0.00 0.13 0.13 71 1012.4
20260505123007 11 38 6.4 11.3 0.00 0.13 0.13 72 1012.4
20260505122509 11 40 6.4 11.3 0.00 0.13 0.13 71 1012.3
20260505122010 11 40 4.8 14.5 0.00 0.13 0.13 72 1012.4
20260505121509 11 31 3.2 14.5 0.00 0.13 0.13 73 1012.5
20260505121010 11 29 3.2 9.7 0.00 0.13 0.13 74 1012.5
20260505120509 10 33 3.2 12.9 0.00 0.13 0.13 74 1012.5
20260505120010 10 32 4.8 12.9 0.00 0.13 0.13 74 1012.5
20260505115010 10 35 4.8 12.9 0.00 0.13 0.13 75 1012.5
20260505114510 10 38 4.8 16.1 0.00 0.13 0.13 76 1012.5
20260505114010 10 39 6.4 16.1 0.00 0.13 0.13 75 1012.5
20260505113509 10 38 6.4 14.5 0.00 0.13 0.13 76 1012.5
20260505113010 10 35 6.4 12.9 0.00 0.13 0.13 77 1012.4
20260505112509 10 37 6.4 16.1 0.00 0.13 0.13 77 1012.5
20260505112009 10 42 4.8 16.1 0.00 0.13 0.13 78 1012.5
20260505111509 10 42 4.8 14.5 0.00 0.13 0.13 79 1012.6
20260505111010 10 40 6.4 14.5 0.00 0.13 0.13 79 1012.6
20260505110510 10 39 4.8 12.9 0.00 0.13 0.13 80 1012.6
20260505101509 8 37 8.0 19.3 0.00 0.13 0.13 85 1012.8
20260505101009 9 43 8.0 16.1 0.00 0.13 0.13 86 1012.8
20260505100509 8 46 8.0 16.1 0.00 0.13 0.13 87 1012.8
20260505100009 8 51 4.8 12.9 0.00 0.13 0.13 88 1012.9
20260505095509 8 51 4.8 12.9 0.03 0.13 0.13 88 1012.8
20260505095008 8 51 4.8 12.9 0.03 0.13 0.13 89 1012.8